2023/09/03 00:00:00, 3.0,22.0
2023/09/03 00:10:00, 3.0,21.7
2023/09/03 00:20:00, 3.0,21.6
2023/09/03 00:30:00, 2.9,21.6
2023/09/03 00:40:00, 2.9,21.6
2023/09/03 00:50:00, 2.9,21.4
2023/09/03 01:00:00, 2.8,21.7
2023/09/03 01:10:00, 2.8,21.2
2023/09/03 01:20:00, 2.9,21.2
2023/09/03 01:30:00, 2.9,21.1
2023/09/03 01:40:00, 2.9,21.2
2023/09/03 01:50:00, 3.0,21.3
2023/09/03 02:00:00, 3.1,21.1
2023/09/03 02:10:00, 3.3,21.0
2023/09/03 02:20:00, 3.4,20.9
2023/09/03 02:30:00, 3.4,20.8
2023/09/03 02:40:00, 3.5,21.0
2023/09/03 02:50:00, 3.6,20.8
2023/09/03 03:00:00, 3.7,20.9
2023/09/03 03:10:00, 3.5,21.0
2023/09/03 03:20:00, 3.5,21.2
2023/09/03 03:30:00, 3.6,20.9
2023/09/03 03:40:00, 3.6,21.3
2023/09/03 03:50:00, 3.7,20.9
2023/09/03 04:00:00, 3.6,20.9
2023/09/03 04:10:00, 3.8,20.9
2023/09/03 04:20:00, 3.8,20.8
2023/09/03 04:30:00, 3.8,20.8
2023/09/03 04:40:00, 3.8,20.4
2023/09/03 04:50:00, 3.8,20.8
2023/09/03 05:00:00, 3.9,20.7
2023/09/03 05:10:00, 3.9,20.6
2023/09/03 05:20:00, 3.9,20.5
2023/09/03 05:30:00, 3.9,20.5
2023/09/03 05:40:00, 3.8,20.4
2023/09/03 05:50:00, 3.7,20.6
2023/09/03 06:00:00, 3.8,21.0
2023/09/03 06:10:00, 3.9,21.0
2023/09/03 06:20:00, 4.0,21.2
2023/09/03 06:30:00, 3.9,21.9
2023/09/03 06:40:00, 3.9,22.3
2023/09/03 06:50:00, 3.9,23.1
2023/09/03 07:00:00, 4.0,23.8
2023/09/03 07:10:00, 3.9,24.1
2023/09/03 07:20:00, 3.9,25.0
2023/09/03 07:30:00, 3.8,25.6
2023/09/03 07:40:00, 3.8,28.6
2023/09/03 07:50:00, 3.9,31.1
2023/09/03 08:00:00, 4.0,31.8
2023/09/03 08:10:00, 4.2,29.7
2023/09/03 08:20:00, 4.3,28.2
2023/09/03 08:30:00, 4.2,29.1
2023/09/03 08:40:00, 4.1,27.9
2023/09/03 08:50:00, 4.0,27.2
2023/09/03 09:00:00, 3.9,27.5
2023/09/03 09:10:00, 3.8,27.7
2023/09/03 09:20:00, 3.9,28.6
2023/09/03 09:30:00, 3.8,29.1
2023/09/03 09:40:00, 3.9,29.1
2023/09/03 09:50:00, 4.1,30.0
2023/09/03 10:00:00, 4.0,31.4
2023/09/03 10:10:00, 4.0,31.0
2023/09/03 10:20:00, 4.0,30.6
2023/09/03 10:30:00, 4.0,30.6
2023/09/03 10:40:00, 3.9,30.7
2023/09/03 10:50:00, 3.8,31.0
2023/09/03 11:00:00, 3.9,31.8
2023/09/03 11:10:00, 3.7,32.4
2023/09/03 11:20:00, 2.7,31.2
2023/09/03 11:30:00, 1.6,30.5
2023/09/03 11:40:00, 1.2,31.4
2023/09/03 11:50:00, 1.4,31.2
2023/09/03 12:00:00, 1.4,31.2
2023/09/03 12:10:00, 2.4,31.8
2023/09/03 12:20:00, 2.4,31.9
2023/09/03 12:30:00, 2.8,32.1
2023/09/03 12:40:00, 2.9,31.8
2023/09/03 12:50:00, 3.1,32.0
2023/09/03 13:00:00, 3.2,32.1
2023/09/03 13:10:00, 3.0,32.1
2023/09/03 13:20:00, 2.9,32.3
2023/09/03 13:30:00, 2.8,32.4
2023/09/03 13:40:00, 2.7,32.4
2023/09/03 13:50:00, 2.6,31.6
2023/09/03 14:00:00, 2.7,31.7
2023/09/03 14:10:00, 2.6,32.6
2023/09/03 14:20:00, 2.4,32.7
2023/09/03 14:30:00, 2.0,32.4
2023/09/03 14:40:00, 2.2,32.8
2023/09/03 14:50:00, 2.4,33.0
2023/09/03 15:00:00, 2.4,32.6
2023/09/03 15:10:00, 2.4,32.5
2023/09/03 15:20:00, 2.4,31.7
2023/09/03 15:30:00, 2.5,31.1
2023/09/03 15:40:00, 2.4,30.7
2023/09/03 15:50:00, 2.3,30.1
2023/09/03 16:00:00, 2.5,31.4
2023/09/03 16:10:00, 2.7,31.7
2023/09/03 16:20:00, 2.6,33.1
2023/09/03 16:30:00, 2.5,31.2
2023/09/03 16:40:00, 2.4,29.0
2023/09/03 16:50:00, 2.4,32.8
2023/09/03 17:00:00, 2.6,35.2
2023/09/03 17:10:00, 2.5,31.4
2023/09/03 17:20:00, 2.4,29.7
2023/09/03 17:30:00, 2.5,31.9
2023/09/03 17:40:00, 2.5,31.8
2023/09/03 17:50:00, 2.6,29.3
2023/09/03 18:00:00, 2.5,27.4
2023/09/03 18:10:00, 2.7,26.3
2023/09/03 18:20:00, 3.1,25.8
2023/09/03 18:30:00, 3.5,25.6
2023/09/03 18:40:00, 3.8,25.6
2023/09/03 18:50:00, 4.0,25.4
2023/09/03 19:00:00, 4.1,25.3
2023/09/03 19:10:00, 4.1,25.1
2023/09/03 19:20:00, 4.2,25.2
2023/09/03 19:30:00, 4.2,25.1
2023/09/03 19:40:00, 4.2,25.0
2023/09/03 19:50:00, 4.2,24.5
2023/09/03 20:00:00, 4.1,24.6
2023/09/03 20:10:00, 4.1,24.2
2023/09/03 20:20:00, 4.1,24.0
2023/09/03 20:30:00, 4.1,24.1
2023/09/03 20:40:00, 4.1,24.0
2023/09/03 20:50:00, 4.1,24.0
2023/09/03 21:00:00, 4.0,23.7
2023/09/03 21:10:00, 4.0,23.6
2023/09/03 21:20:00, 4.0,23.5
2023/09/03 21:30:00, 4.0,23.4
2023/09/03 21:40:00, 3.9,23.0
2023/09/03 21:50:00, 3.8,22.9
2023/09/03 22:00:00, 3.9,22.7
2023/09/03 22:10:00, 3.9,22.9
2023/09/03 22:20:00, 4.0,22.7
2023/09/03 22:30:00, 4.1,22.9
2023/09/03 22:40:00, 4.1,22.5
2023/09/03 22:50:00, 4.2,22.5
2023/09/03 23:00:00, 4.4,22.3
2023/09/03 23:10:00, 4.4,22.6
2023/09/03 23:20:00, 4.4,22.3
2023/09/03 23:30:00, 4.4,22.1
2023/09/03 23:40:00, 4.4,22.3
2023/09/03 23:50:00, 4.5,22.1
